START_TIME,STEP,MOV.,AL01,t_acc.,AL02,t_acc.,E37,t_acc.,H21,t_acc.
1979-07-19 18:00:34.130 ,1,1,0.,24.0,0.,24.0,0.,24.0,0.,24.0
1979-07-19 18:00:58.130 ,2,1,0.,24.0,0.,24.0,0.,24.0,0.,24.0
1979-07-19 18:01:22.130 ,6,1,0.,24.0,0.,24.0,0.,24.0,0.,24.0
1979-07-19 18:01:46.130 ,5,1,16.,24.0,0.,24.0,0.,24.0,0.,24.0
1979-07-19 18:02:10.130 ,1,1,1.,24.0,0.,24.0,0.,24.0,0.,24.0
1979-07-19 18:02:34.130 ,2,1,0.,24.0,0.,24.0,0.,24.0,0.,24.0
1979-07-19 18:02:58.130 ,6,1,0.,24.0,0.,24.0,0.,24.0,0.,24.0
1979-07-19 18:03:22.130 ,5,1,18.,24.0,0.,24.0,0.,24.0,0.,24.0
1979-07-19 18:03:46.130 ,1,1,1.,24.0,0.,24.0,0.,24.0,0.,24.0
1979-07-19 18:04:10.130 ,2,1,0.,24.0,0.,24.0,0.,24.0,0.,24.0
1979-07-19 18:04:34.130 ,6,1,1.,24.0,0.,24.0,0.,24.0,0.,24.0
1979-07-19 18:04:58.130 ,5,1,21.,24.0,0.,24.0,0.,24.0,0.,24.0
1979-07-19 18:05:22.130 ,1,1,0.,24.0,0.,24.0,0.,24.0,0.,24.0
1979-07-19 18:05:46.130 ,0,0,0.,24.0,0.,24.0,0.,24.0,0.,24.0
1979-07-19 18:06:10.130 ,0,0,0.,24.0,1.,24.0,0.,24.0,0.,24.0
1979-07-19 18:06:34.130 ,5,1,17.,24.0,0.,24.0,0.,24.0,0.,24.0
1979-07-19 18:06:58.130 ,5,0,0.,24.0,0.,24.0,0.,24.0,0.,24.0
1979-07-19 18:07:22.130 ,0,0,0.,24.0,0.,24.0,0.,24.0,0.,24.0
1979-07-19 18:07:46.130 ,0,0,,0,,0,,0,,0
1979-07-19 18:09:29.930 ,0,0,0.,24.0,0.,24.0,0.,24.0,0.,24.0
1979-07-19 18:09:46.130 ,1,1,0.,24.0,0.,24.0,0.,24.0,0.,24.0
1979-07-19 18:10:10.130 ,1,0,0.,24.0,0.,24.0,0.,24.0,0.,24.0
1979-07-19 18:10:34.130 ,0,1,1.,24.0,0.,24.0,0.,24.0,0.,24.0
1979-07-19 18:10:58.130 ,0,0,1.,24.0,0.,24.0,0.,24.0,0.,24.0
1979-07-19 18:11:22.130 ,0,1,0.,24.0,0.,24.0,0.,24.0,0.,24.0
1979-07-19 18:11:46.130 ,0,0,0.,24.0,0.,24.0,0.,24.0,0.,24.0
1979-07-19 18:12:10.130 ,1,1,0.,24.0,0.,24.0,0.,24.0,0.,24.0
1979-07-19 18:12:34.130 ,1,0,0.,24.0,1.,24.0,0.,24.0,0.,24.0
1979-07-19 18:12:58.130 ,2,1,0.,24.0,0.,24.0,0.,24.0,0.,24.0
1979-07-19 18:13:22.130 ,2,0,0.,24.0,0.,24.0,0.,24.0,0.,24.0
1979-07-19 18:13:46.130 ,3,1,0.,24.0,0.,24.0,0.,24.0,0.,24.0
1979-07-19 18:14:10.130 ,3,0,1.,24.0,0.,24.0,0.,24.0,0.,24.0
1979-07-19 18:14:34.130 ,4,1,0.,24.0,0.,24.0,0.,24.0,0.,24.0
1979-07-19 18:14:58.130 ,4,0,0.,24.0,0.,24.0,0.,24.0,0.,24.0
1979-07-19 18:15:22.130 ,5,1,0.,24.0,0.,24.0,0.,24.0,0.,24.0
1979-07-19 18:15:46.130 ,5,0,0.,24.0,1.,24.0,0.,24.0,0.,24.0
1979-07-19 18:16:10.130 ,6,1,0.,24.0,0.,24.0,0.,24.0,0.,24.0
1979-07-19 18:16:34.130 ,6,0,0.,24.0,0.,24.0,0.,24.0,0.,24.0
1979-07-19 18:16:58.130 ,7,1,8.,24.0,0.,24.0,0.,24.0,0.,24.0
1979-07-19 18:17:22.130 ,7,0,42.,24.0,0.,24.0,0.,24.0,0.,24.0
1979-07-19 18:17:46.130 ,7,1,29.,24.0,0.,24.0,0.,24.0,0.,24.0
1979-07-19 18:18:10.130 ,7,0,30.,24.0,0.,24.0,0.,24.0,0.,24.0
1979-07-19 18:18:34.130 ,6,1,15.,24.0,0.,24.0,0.,24.0,0.,24.0
1979-07-19 18:18:58.130 ,6,0,0.,24.0,0.,24.0,0.,24.0,0.,24.0
1979-07-19 18:19:22.130 ,5,1,0.,24.0,0.,24.0,0.,24.0,0.,24.0
1979-07-19 18:19:46.130 ,5,0,0.,24.0,0.,24.0,0.,24.0,0.,24.0
1979-07-19 18:20:10.130 ,4,1,1.,24.0,0.,24.0,0.,24.0,0.,24.0
1979-07-19 18:20:34.130 ,4,0,0.,24.0,0.,24.0,0.,24.0,0.,24.0
1979-07-19 18:20:58.130 ,3,1,0.,24.0,0.,24.0,0.,24.0,0.,24.0
1979-07-19 18:21:22.130 ,3,0,0.,24.0,1.,24.0,0.,24.0,0.,24.0
1979-07-19 18:21:46.130 ,2,1,0.,24.0,0.,24.0,0.,24.0,0.,24.0
1979-07-19 18:22:10.130 ,2,0,1.,24.0,0.,24.0,0.,24.0,0.,24.0
1979-07-19 18:22:34.130 ,1,1,1.,24.0,0.,24.0,0.,24.0,0.,24.0
1979-07-19 18:22:58.130 ,1,0,0.,24.0,1.,24.0,0.,24.0,0.,24.0
1979-07-19 18:23:22.130 ,0,1,1.,24.0,0.,24.0,0.,24.0,0.,24.0
1979-07-19 18:23:46.130 ,0,0,1.,24.0,0.,24.0,0.,24.0,0.,24.0
1979-07-19 18:24:10.130 ,0,1,1.,24.0,0.,24.0,0.,24.0,0.,24.0
1979-07-19 18:24:34.130 ,0,0,0.,24.0,0.,24.0,0.,24.0,0.,24.0
1979-07-19 18:24:58.130 ,1,1,0.,24.0,0.,24.0,0.,24.0,0.,24.0
1979-07-19 18:25:22.130 ,1,0,0.,24.0,0.,24.0,0.,24.0,0.,24.0
1979-07-19 18:25:46.130 ,2,1,1.,24.0,0.,24.0,0.,24.0,0.,24.0
1979-07-19 18:26:10.130 ,2,0,1.,24.0,0.,24.0,0.,24.0,0.,24.0
1979-07-19 18:26:34.130 ,3,1,1.,24.0,0.,24.0,0.,24.0,0.,24.0
1979-07-19 18:26:58.130 ,3,0,0.,24.0,2.,24.0,0.,24.0,0.,24.0
1979-07-19 18:27:22.130 ,4,1,0.,24.0,0.,24.0,0.,24.0,0.,24.0
1979-07-19 18:27:46.130 ,4,0,0.,24.0,0.,24.0,0.,24.0,0.,24.0
1979-07-19 18:28:10.130 ,5,1,0.,24.0,0.,24.0,0.,24.0,0.,24.0
1979-07-19 18:28:34.130 ,5,0,1.,24.0,0.,24.0,0.,24.0,0.,24.0
1979-07-19 18:28:58.130 ,6,1,0.,24.0,0.,24.0,0.,24.0,0.,24.0
1979-07-19 18:29:22.130 ,6,0,1.,24.0,1.,24.0,0.,24.0,0.,24.0
